Terminal Aerodrome Forecast
Issued by NWS

Home | Current Version | Previous Version | Text Only | Print | Product List | Glossary On
Versions: 1 2 3 4 5 6 7 8 9 10 11 12 13 14 15
000
FTUS42 TJSJ 012300 RRA
TAFIST
TAF
TIST 012340Z 0200/0224 07010KT P6SM VCSH SCT025 SCT050
     FM021300 09012G22KT P6SM SCT025
     FM022300 09010KT P6SM FEW025
      AMD NOT SKED=

USA.gov is the U.S. government's official web portal to all federal, state and local government web resources and services.